[[{"header":{"parameterUnit":"m.s-1","parameterCategory":1,"la1":30.2991,"la2":30.254,"lo1":-89.0895,"lo2":-89.0444,"dy":0.0017,"dx":0.0017,"nx":28,"ny":28,"refTime":"2023-07-28T09:00:00:Z","depth":0,"parameterNumber":2,"parameterNumberName":"U-component_of_WINDS"},"data":[0,0,0,0,0,0,0,0,0,0,0,0,0,0,0,0,0,0,0,0,0,0,0,0,0,0,0,0,0,0,0,0,0,0,0,0,0,0,0,0,0,0,0,0,0,0,0,0,0,0,0,0,0,0,0,0,0,0,1.0185,1.0186,0,1.028,1.0281,1.0282,1.032,1.032,1.032,1.0319,1.0415,1.0418,1.0421,0,0,0,0,0,0,0,0,0,0,0,0,0,1.0033,1.0036,1.0185,1.0186,1.0187,1.028,1.0281,1.0282,1.032,1.032,1.032,1.0319,1.0414,1.0418,1.0421,0,0,0,0,0,0,0,0,0,0,0,0,0,1.0111,1.0037,1.0185,1.0217,1.0221,1.028,1.0281,1.0283,1.032,1.032,1.0319,1.0319,1.0413,1.0417,1.0421,1.0454,0,0,1.0434,1.0436,0,0,0,0,0,0,0,0,1.0106,1.0116,1.0211,1.0215,1.022,1.0288,1.0263,1.034,1.032,1.0282,1.0319,1.0319,1.0373,1.0381,1.0399,1.0459,1.0463,1.0435,1.0437,1.0439,1.044,0,0,0,0,0,0,0,1.0101,1.0112,1.0222,1.0213,1.0218,1.0226,1.0237,1.0278,1.0329,1.0286,1.0289,1.03,1.0375,1.0395,1.0402,1.0464,1.0434,1.0438,1.0441,1.0442,1.0554,1.0554,0,0,0,0,0,0,1.009,1.0108,1.0219,1.0225,1.0161,1.0229,1.0241,1.0266,1.0328,1.0337,1.03,1.0301,1.0388,1.0397,1.0405,1.0447,1.0439,1.0443,1.0445,1.0553,1.0554,1.0554,0,0,0,0,0,0,1.0087,1.01,1.0216,1.0167,1.0183,1.0232,1.026,1.0268,1.0288,1.0339,1.0348,1.0311,1.0388,1.0399,1.0441,1.0451,1.0445,1.0448,1.0553,1.0554,1.0554,1.0531,0,0,0,0,0,0,1.0082,1.0099,1.0112,1.0167,1.0185,1.0251,1.0261,1.027,1.0295,1.0298,1.0352,1.036,1.0389,1.0435,1.0446,1.0456,1.0452,1.0552,1.0553,1.0554,1.0531,1.053,1.053,0,0,0,0,0,1.0077,1.0102,1.0113,1.0126,1.0203,1.0252,1.0262,1.0294,1.0296,1.031,1.0342,1.0358,1.0448,1.0439,1.0451,1.0463,1.0552,1.0553,1.0554,1.0531,1.0531,1.053,0,0,0,0,0,0,1.0046,1.011,1.0123,1.0166,1.0203,1.0258,1.0276,1.0293,1.033,1.0331,1.037,1.0381,1.042,1.0446,1.0435,1.0497,1.0501,1.0504,1.0479,1.0479,1.0479,1.0472,1.0455,0,0,0,0,0,1.0044,1.0079,1.0132,1.0165,1.0183,1.0226,1.0249,1.0271,1.031,1.0326,1.0362,1.0399,1.0436,1.0459,1.0495,1.0534,1.0546,1.0549,1.0548,1.0548,1.055,1.0572,1.0574,1.0558,1.0558,1.0558,0,0,1.0041,1.008,1.0099,1.016,1.0192,1.0225,1.0239,1.0275,1.03,1.0331,1.0374,1.0401,1.0445,1.0485,1.0505,1.0508,1.0557,1.0549,1.0548,1.0551,1.0573,1.0575,1.0576,1.0559,1.0558,1.0558,0,0,1.0052,1.0086,1.0117,1.0148,1.0195,1.0223,1.023,1.0283,1.0302,1.0345,1.0368,1.0398,1.0461,1.0491,1.0515,1.0536,1.0552,1.0547,1.0545,1.0565,1.0567,1.0568,1.0575,1.0577,1.0549,1.0549,1.0549,0,1.0042,1.0096,1.013,1.0165,1.019,1.022,1.0251,1.0279,1.0335,1.0352,1.0354,1.0432,1.0464,1.0512,1.0517,1.0535,1.0544,1.0541,1.0564,1.0565,1.0567,1.0574,1.0577,1.0548,1.0548,1.0548,1.0548,0,1.008,1.0116,1.0136,1.019,1.0217,1.0249,1.0288,1.0312,1.0331,1.0358,1.0401,1.044,1.0484,1.0497,1.0516,1.0547,1.0547,1.0556,1.0561,1.0567,1.0574,1.0577,1.0546,1.0547,1.0547,1.0547,0,0,1.0076,1.0148,1.0154,1.0179,1.0232,1.0261,1.0294,1.0337,1.0356,1.0394,1.0422,1.0473,1.0482,1.0508,1.0531,1.0549,1.0562,1.0556,1.0557,1.0555,1.0598,1.0591,1.0593,1.0573,1.0574,1.0574,1.0594,0,1.0094,1.0156,1.0187,1.0235,1.0268,1.0296,1.0324,1.036,1.0386,1.0417,1.0446,1.0482,1.049,1.0506,1.0525,1.0557,1.0571,1.0556,1.0599,1.06,1.0587,1.0597,1.059,1.0607,1.0597,1.0598,1.0598,0,1.0124,1.0161,1.0212,1.0261,1.0276,1.0302,1.0344,1.0373,1.0414,1.0431,1.046,1.0482,1.0517,1.0518,1.0566,1.0555,1.0574,1.0592,1.0593,1.0599,1.06,1.0603,1.0613,1.0615,1.0603,1.0602,1.0602,0,1.0115,1.0178,1.0216,1.0236,1.0295,1.0311,1.0336,1.0376,1.04,1.0436,1.0452,1.0492,1.0513,1.0543,1.0575,1.0573,1.0619,1.0624,1.0635,1.0634,1.0643,1.0642,1.0657,1.0656,1.0656,1.0656,1.0656,0,1.0132,1.0162,1.0213,1.0236,1.027,1.0306,1.0338,1.0365,1.04,1.0428,1.0455,1.048,1.0521,1.0552,1.0576,1.0612,1.0622,1.0636,1.0643,1.0634,1.0632,1.0648,1.0647,1.0656,1.0656,1.0656,1.0656,0,1.0128,1.0163,1.0207,1.0258,1.0272,1.0294,1.0338,1.0361,1.0388,1.0424,1.0434,1.0477,1.0514,1.0549,1.0598,1.0615,1.0651,1.0659,1.0637,1.0641,1.065,1.0648,1.0675,1.068,1.0675,1.0675,1.0675,0,1.0136,1.016,1.0214,1.0235,1.026,1.0294,1.0318,1.0353,1.0377,1.0424,1.0442,1.0481,1.0515,1.0573,1.0608,1.0646,1.0655,1.0661,1.0661,1.0651,1.0654,1.0653,1.0655,1.0661,1.0661,1.066,1.066,0,1.0148,1.0164,1.0199,1.0239,1.0268,1.0301,1.0335,1.0351,1.0392,1.0418,1.0457,1.0483,1.0533,1.0572,1.0613,1.0638,1.0656,1.066,1.0665,1.0656,1.0643,1.065,1.0636,1.066,1.066,1.066,1.066,1.066,1.015,1.0172,1.0213,1.0251,1.028,1.0311,1.0336,1.0366,1.0399,1.0443,1.0462,1.0501,1.0539,1.0597,1.0621,1.0652,1.0656,1.0662,1.0664,1.0665,1.0663,1.0638,1.0659,1.0659,1.066,1.066,1.066,0,1.0162,1.019,1.0224,1.0271,1.03,1.0315,1.0353,1.0376,1.0411,1.0445,1.0477,1.0521,1.0558,1.0596,1.0635,1.0652,1.0661,1.0661,1.066,1.0665,1.0658,1.065,1.0653,1.0653,1.0653,1.0653,1.0653,1.0653,1.0172,1.021,1.0231,1.0283,1.0311,1.035,1.037,1.0398,1.0426,1.0474,1.0505,1.053,1.0565,1.0607,1.0641,1.0651,1.0664,1.0662,1.0674,1.0666,1.0666,1.0666,1.0659,1.0664,1.0664,1.0679,1.0679,1.0679]},{"header":{"parameterUnit":"m.s-1","parameterCategory":1,"la1":30.2991,"la2":30.254,"lo1":-89.0895,"lo2":-89.0444,"dy":0.0017,"dx":0.0017,"nx":28,"ny":28,"refTime":"2023-07-28T09:00:00:Z","depth":0,"parameterNumber":3,"parameterNumberName":"V-component_of_WINDS"},"data":[0,0,0,0,0,0,0,0,0,0,0,0,0,0,0,0,0,0,0,0,0,0,0,0,0,0,0,0,0,0,0,0,0,0,0,0,0,0,0,0,0,0,0,0,0,0,0,0,0,0,0,0,0,0,0,0,0,0,4.4122,4.4121,0,4.4082,4.4081,4.4081,4.4024,4.4024,4.4023,4.4022,4.398,4.398,4.3979,0,0,0,0,0,0,0,0,0,0,0,0,0,4.4149,4.4148,4.4122,4.4121,4.4121,4.4082,4.4081,4.4081,4.4025,4.4023,4.4022,4.4021,4.398,4.398,4.3979,0,0,0,0,0,0,0,0,0,0,0,0,0,4.4126,4.4148,4.4122,4.4088,4.4085,4.4082,4.4081,4.4081,4.4025,4.4023,4.4022,4.4021,4.398,4.398,4.3979,4.4006,0,0,4.3978,4.3978,0,0,0,0,0,0,0,0,4.4127,4.4125,4.4094,4.409,4.4087,4.4057,4.4075,4.4056,4.4025,4.4048,4.4022,4.402,4.4007,4.4004,4.4,4.4004,4.4003,4.3978,4.3978,4.3978,4.3978,0,0,0,0,0,0,0,4.4129,4.4126,4.4106,4.4093,4.4089,4.4075,4.407,4.4071,4.4036,4.4046,4.4041,4.4037,4.4004,4.4,4.3998,4.4002,4.3978,4.3978,4.3978,4.3978,4.4026,4.4028,0,0,0,0,0,0,4.4135,4.4128,4.4107,4.4105,4.4104,4.4075,4.407,4.4068,4.4035,4.4029,4.4039,4.4035,4.4001,4.3999,4.3997,4.4025,4.3978,4.3978,4.3978,4.4025,4.4027,4.4028,0,0,0,0,0,0,4.4136,4.4134,4.4109,4.4115,4.4111,4.4076,4.4074,4.4068,4.4063,4.403,4.4024,4.4041,4.4,4.3997,4.4004,4.4023,4.3978,4.3977,4.4023,4.4025,4.4027,4.4084,0,0,0,0,0,0,4.4137,4.4135,4.4145,4.4116,4.4111,4.4118,4.4076,4.4068,4.4063,4.4058,4.4031,4.4025,4.3999,4.4005,4.4004,4.4022,4.3977,4.4021,4.4024,4.4027,4.408,4.4088,4.4094,0,0,0,0,0,4.4138,4.4162,4.4146,4.4143,4.4123,4.4119,4.4116,4.4086,4.4065,4.4074,4.4053,4.4026,4.4022,4.4006,4.4005,4.4023,4.402,4.4023,4.4026,4.4077,4.4086,4.4094,0,0,0,0,0,0,4.4194,4.4158,4.4139,4.4154,4.414,4.4109,4.4121,4.4097,4.4088,4.4083,4.4046,4.404,4.4052,4.4038,4.4022,4.4047,4.4016,4.402,4.4055,4.4064,4.4071,4.4073,4.3977,0,0,0,0,0,4.4208,4.4208,4.4177,4.4193,4.4187,4.4155,4.4152,4.4131,4.4114,4.4108,4.4087,4.4072,4.4067,4.4065,4.4059,4.4078,4.4071,4.409,4.4097,4.4103,4.4105,4.4114,4.4122,4.4039,4.4039,4.4039,0,0,4.4237,4.4217,4.422,4.4204,4.419,4.4191,4.4151,4.4153,4.4153,4.4108,4.4113,4.4098,4.4079,4.4092,4.4097,4.4081,4.4127,4.4107,4.4112,4.4111,4.4118,4.4126,4.4133,4.4041,4.4041,4.4041,0,0,4.429,4.4275,4.4287,4.4275,4.4255,4.4234,4.4237,4.421,4.4197,4.4203,4.4169,4.4168,4.4161,4.4148,4.4141,4.419,4.4164,4.4189,4.4225,4.4234,4.424,4.4246,4.4262,4.4269,4.4192,4.4192,4.4192,0,4.4328,4.4328,4.4296,4.4301,4.4295,4.4255,4.4266,4.4255,4.4234,4.4231,4.4213,4.4203,4.4188,4.4197,4.4209,4.4205,4.4206,4.4191,4.4242,4.4247,4.4252,4.4267,4.4274,4.4195,4.4195,4.4195,4.4194,0,4.4376,4.4376,4.4388,4.4369,4.4365,4.4373,4.4342,4.4341,4.4319,4.43,4.4305,4.4285,4.4274,4.4275,4.4254,4.4281,4.4272,4.4249,4.4218,4.4264,4.4277,4.4283,4.42,4.4199,4.4198,4.4197,0,0,4.4461,4.4425,4.443,4.4421,4.4396,4.4396,4.4402,4.4392,4.4391,4.4378,4.4382,4.4377,4.4356,4.4347,4.4325,4.4333,4.4372,4.4308,4.4307,4.432,4.4399,4.4416,4.4424,4.4355,4.4356,4.4356,4.4401,0,4.4509,4.4517,4.4489,4.4505,4.4505,4.4467,4.4472,4.4458,4.444,4.4437,4.4417,4.4414,4.4386,4.4381,4.4387,4.4366,4.4387,4.4362,4.4357,4.4357,4.4362,4.4431,4.4449,4.4491,4.4406,4.4407,4.4407,0,4.4565,4.4555,4.4571,4.4546,4.4544,4.455,4.4538,4.4535,4.4518,4.4504,4.4496,4.447,4.4473,4.4444,4.4449,4.4432,4.4429,4.4418,4.4419,4.4416,4.4384,4.4429,4.4504,4.451,4.4416,4.4415,4.4414,0,4.4625,4.4616,4.4624,4.4618,4.4588,4.4593,4.4581,4.4562,4.4557,4.4547,4.4543,4.4533,4.4528,4.452,4.4492,4.4474,4.4499,4.4468,4.4487,4.4488,4.4494,4.4493,4.4568,4.4493,4.4493,4.4493,4.4493,0,4.468,4.4691,4.465,4.4655,4.4666,4.4634,4.4646,4.463,4.4614,4.4614,4.4581,4.4583,4.4546,4.4543,4.4521,4.4527,4.4525,4.4514,4.4508,4.4516,4.4518,4.4513,4.4508,4.4495,4.4494,4.4494,4.4494,0,4.4748,4.4722,4.4728,4.47,4.4693,4.4702,4.4678,4.4681,4.4662,4.4663,4.4662,4.4631,4.4626,4.4597,4.4585,4.4571,4.4585,4.4573,4.4591,4.4586,4.4607,4.4605,4.468,4.4688,4.4609,4.461,4.4611,0,4.4784,4.4792,4.4765,4.4763,4.4753,4.4751,4.4746,4.4714,4.4711,4.4692,4.4697,4.4689,4.4682,4.4675,4.4651,4.4642,4.4629,4.4656,4.4628,4.4636,4.4628,4.4628,4.4628,4.4662,4.4663,4.4664,4.4665,0,4.4852,4.4838,4.4833,4.4823,4.4818,4.4809,4.4798,4.4798,4.4763,4.4761,4.4755,4.4749,4.4738,4.473,4.4717,4.4704,4.4678,4.4674,4.4678,4.4686,4.4696,4.469,4.4606,4.4672,4.4671,4.4671,4.4671,4.467,4.4904,4.4909,4.4891,4.4886,4.4874,4.4864,4.4866,4.4847,4.4842,4.483,4.4812,4.4809,4.4791,4.477,4.4759,4.4756,4.4742,4.4747,4.4749,4.475,4.4754,4.4697,4.4754,4.4754,4.4753,4.4753,4.4753,0,4.4969,4.4955,4.4951,4.4936,4.4932,4.491,4.4896,4.4894,4.4892,4.4878,4.4871,4.4865,4.4857,4.4833,4.4823,4.4825,4.4813,4.4824,4.4823,4.482,4.4769,4.4766,4.4834,4.4834,4.4834,4.4834,4.4833,4.4833,4.5002,4.5008,4.4993,4.4994,4.498,4.4977,4.4971,4.4962,4.495,4.4945,4.4939,4.4923,4.4905,4.4893,4.4885,4.4878,4.4876,4.489,4.4879,4.4831,4.4824,4.4816,4.4813,4.489,4.489,4.493,4.4931,4.4931]}]]